Wind_Speed
11 11 11 12 12 13 13 13 14 14 15 16 16 17 18 19 19 19 19 19 20 21 22 22 22 23 23 24 24 24 24 24 24 24 25 26 27 27 27 27 27 28 28
11 12 12 13 13 13 13 13 13 14 15 16 17 18 18 18 18 19 20 21 22 22 23 23 23 24 25 26 26 26 25 24 25 25 26 27 27 27 28 28 28 29 29
11 12 13 13 13 13 13 13 14 15 15 16 18 18 19 18 19 20 20 21 23 23 23 24 25 25 26 26 27 27 27 26 27 27 27 28 28 29 28 28 29 30 30
11 12 13 12 12 12 13 13 14 15 16 17 18 18 19 20 21 21 22 22 23 24 24 25 25 26 26 26 27 26 26 26 27 28 28 29 29 29 29 29 30 31 31
12 13 13 13 12 13 13 14 15 16 17 17 18 18 19 20 21 22 22 22 23 24 24 25 24 24 25 26 26 26 25 26 26 27 28 28 28 29 29 30 30 31 32
13 14 14 15 15 15 15 16 16 17 17 17 17 18 20 21 21 22 23 23 24 24 24 23 24 24 24 24 25 25 25 25 26 26 27 27 28 28 29 30 31 32 33
15 15 15 16 16 16 17 17 18 18 18 18 19 20 21 21 22 23 23 24 24 24 24 24 24 23 22 22 23 24 26 26 27 28 28 29 29 30 31 31 31 32 33
16 17 17 16 17 18 18 18 18 18 19 19 20 21 21 21 21 22 22 23 23 24 24 24 23 22 22 23 25 26 27 28 28 29 30 30 31 32 32 32 32 33 34
17 17 17 18 18 18 18 18 18 19 19 20 21 20 21 21 21 21 22 21 22 22 22 23 23 23 23 23 24 26 27 28 28 29 30 31 32 33 33 34 35 36 36
18 18 19 19 19 19 19 19 20 20 20 21 21 21 21 20 20 20 21 20 20 21 21 22 22 23 23 24 25 26 27 28 28 29 30 31 32 33 34 35 35 36 36
20 20 20 20 21 21 21 21 22 22 22 22 22 21 21 21 21 20 21 20 20 21 22 22 22 22 23 24 25 26 27 28 28 29 30 31 32 33 34 35 36 37 38
20 21 21 22 22 22 22 22 23 23 23 22 22 22 21 21 22 22 21 21 22 22 23 23 24 24 25 25 26 27 28 29 30 31 31 32 33 34 34 35 36 37 37
21 22 22 23 23 23 23 23 23 23 23 22 22 22 22 22 22 22 22 23 23 24 24 24 25 26 26 27 28 28 29 31 32 32 32 33 34 35 36 36 37 37 38
22 23 23 23 23 23 24 23 23 22 22 22 22 22 22 22 22 22 22 23 23 24 25 26 27 27 28 28 29 30 31 32 32 33 33 34 36 36 37 37 37 37 38
22 23 23 23 24 24 23 23 23 22 22 22 22 21 21 22 22 23 23 23 24 24 26 27 27 28 29 29 30 31 31 32 32 33 34 35 36 36 36 36 36 37 37
23 23 23 23 23 24 23 23 22 22 22 21 21 21 21 22 22 23 23 24 24 25 26 27 28 29 29 30 30 30 31 32 32 33 33 34 35 35 35 35 35 35 35
24 24 24 24 24 23 23 23 22 22 22 21 21 21 22 22 22 23 24 24 25 26 26 28 28 29 29 29 30 30 31 31 31 32 32 33 33 34 34 34 34 34 34
24 24 24 24 23 23 23 23 22 22 21 21 21 22 22 22 23 24 24 25 26 26 27 28 28 28 29 29 30 30 31 31 31 32 33 33 33 33 33 33 32 33 33
24 24 23 23 22 22 22 22 22 22 22 22 22 22 23 23 24 24 25 25 26 27 27 27 27 28 28 29 29 30 30 31 31 32 32 32 32 33 32 32 31 31 31
25 24 23 23 22 22 22 22 22 22 22 23 23 23 23 24 24 24 24 25 26 26 26 26 27 27 28 28 29 30 30 31 31 31 31 32 32 31 31 30 30 29 29
24 24 24 23 22 22 22 22 22 22 23 23 22 23 23 24 24 25 25 25 26 26 26 26 27 27 28 29 30 30 30 30 30 31 31 30 30 29 29 28 29 28 29
24 24 23 23 23 22 22 22 22 22 22 23 22 23 23 24 25 25 25 26 26 26 26 27 27 27 28 29 29 29 29 29 30 30 29 29 28 28 28 27 27 27 27
23 23 23 23 22 22 23 22 22 22 22 22 23 23 24 24 24 25 25 25 25 25 26 26 27 27 28 28 28 28 28 28 28 28 28 27 27 26 26 26 26 26 26
23 23 23 22 22 22 22 21 22 22 22 23 23 23 24 24 24 23 24 24 25 26 26 27 27 28 28 28 28 28 28 28 27 27 26 26 26 25 25 25 25 24 24
23 22 22 22 21 21 20 21 21 21 22 22 22 23 23 23 23 23 24 25 26 27 27 27 27 27 28 28 28 27 27 26 26 26 25 25 24 24 24 24 24 23 23
22 22 21 20 20 20 20 21 21 21 21 22 22 23 23 24 24 25 25 26 27 27 28 28 27 27 27 27 27 26 26 25 25 25 24 24 24 24 23 23 23 22 22
Wind_Direction
286 284 280 274 274 275 277 276 275 275 277 275 278 277 273 272 270 270 271 274 274 274 275 273 271 270 270 270 270 270 272 273 271 272 272 274 275 275 275 275 274 273 274
290 289 287 280 275 276 276 277 280 279 277 275 276 277 277 275 271 272 273 275 276 275 277 275 272 272 271 271 270 270 272 272 274 275 275 276 276 277 277 276 275 276 276
297 295 295 289 281 279 278 281 285 284 281 277 276 276 277 276 275 275 274 275 277 278 279 276 273 273 272 271 271 272 272 273 274 274 275 275 276 277 278 276 275 276 276
299 298 299 296 289 285 285 286 287 287 285 282 280 278 277 278 279 278 277 277 279 278 279 278 276 274 273 273 272 272 272 273 275 275 275 276 276 277 277 276 277 277 277
298 298 299 297 295 292 292 294 293 289 288 287 285 282 281 281 280 280 279 279 280 280 279 279 278 278 277 276 275 273 273 276 278 277 277 277 277 278 279 279 280 279 281
298 299 298 296 295 296 297 298 297 297 294 292 290 285 283 282 282 282 281 280 280 281 281 281 281 281 277 276 275 275 275 277 278 279 279 281 281 281 281 281 281 281 282
295 296 297 296 295 295 296 297 298 298 295 293 291 289 288 288 286 284 282 281 281 282 284 283 282 282 281 278 277 278 277 277 278 279 280 281 281 281 280 281 281 281 281
292 294 294 294 295 295 294 296 298 298 296 295 294 293 291 289 289 286 285 283 283 285 285 284 283 283 283 281 280 281 280 278 278 279 280 281 281 283 283 282 282 282 281
290 292 292 294 295 295 295 296 297 298 298 297 299 296 294 293 291 290 288 287 285 285 286 286 286 286 284 282 282 284 283 282 280 281 282 282 283 283 284 283 283 283 283
288 290 290 293 294 294 295 296 297 298 299 298 297 295 295 295 294 292 291 290 288 287 287 288 288 288 286 285 286 288 287 285 284 284 284 284 285 286 286 286 285 285 285
286 287 289 291 293 294 295 296 297 298 298 298 297 296 295 294 294 293 293 292 290 290 291 291 291 291 291 291 290 290 290 289 288 288 289 289 288 289 289 288 288 287 287
283 285 287 290 292 293 294 295 296 297 298 298 297 296 294 294 293 292 293 293 291 292 292 293 294 295 294 293 293 293 292 292 291 290 291 291 290 291 292 291 290 289 289
285 285 288 290 291 293 294 295 295 296 296 296 296 296 294 293 292 291 292 292 292 293 293 294 295 296 296 295 295 296 296 295 294 293 292 292 293 293 293 293 291 290 290
285 285 287 289 290 292 294 295 296 296 296 295 295 295 296 294 293 292 292 293 293 294 295 296 296 296 297 297 297 296 296 297 296 295 295 294 294 294 294 293 292 291 291
284 286 288 289 291 293 295 295 296 296 296 296 295 295 296 296 296 294 293 293 294 295 297 297 297 297 297 297 297 297 298 298 298 298 297 297 296 296 296 295 296 295 294
283 286 288 290 291 293 294 295 295 297 297 297 297 297 297 297 296 297 297 296 296 297 298 299 299 299 299 299 299 299 300 300 299 299 299 299 299 298 298 297 297 296 294
284 286 287 288 290 292 293 294 296 297 298 297 298 299 300 299 298 298 299 299 299 300 301 301 301 301 301 301 301 301 301 301 301 301 300 300 300 300 300 299 298 297 295
283 285 287 288 290 292 293 295 295 296 298 299 298 299 300 300 299 299 299 300 301 302 303 303 303 303 303 303 303 302 302 301 301 301 302 302 302 302 302 300 299 298 297
282 284 287 288 290 292 293 294 296 297 297 299 299 299 300 300 300 300 300 301 302 303 304 305 305 305 305 305 305 305 305 305 305 305 304 304 303 304 304 303 302 300 299
281 284 287 288 290 291 292 294 295 295 296 298 299 300 300 300 300 301 302 303 304 305 306 306 305 305 306 307 307 307 307 307 307 307 307 306 306 305 305 304 304 303 302
281 284 285 286 288 290 291 293 294 294 296 297 298 300 301 302 303 304 304 305 306 306 306 306 307 307 308 309 309 309 309 309 309 308 308 308 308 308 307 306 306 305 304
280 282 283 283 286 288 289 291 293 294 296 297 298 300 301 302 304 305 305 306 306 307 307 307 308 309 310 310 311 312 312 311 310 310 310 310 309 309 309 309 309 308 308
279 281 283 283 284 286 287 288 291 294 296 297 299 300 302 303 304 305 305 306 307 308 309 309 310 310 311 312 312 313 314 314 313 312 311 311 311 310 311 311 310 310 311
278 280 282 283 284 286 288 289 292 294 296 297 298 300 302 303 305 305 306 307 309 310 310 311 311 311 312 313 313 313 314 315 315 315 314 313 313 313 313 313 312 312 312
277 279 280 282 285 287 288 290 292 294 295 297 299 301 302 304 305 305 306 307 309 310 311 311 312 312 313 314 314 314 314 315 315 315 315 315 315 315 315 315 314 313 314
277 279 280 282 285 286 287 290 292 293 296 299 301 302 303 304 305 305 306 307 309 310 311 311 312 313 314 314 314 314 314 315 316 316 316 316 316 316 316 317 317 316 316
Height
5884 5883 5882 5881 5881 5880 5880 5879 5879 5879 5879 5878 5877 5877 5876 5876 5876 5875 5875 5875 5874 5874 5873 5872 5872 5872 5871 5871 5870 5870 5870 5869 5869 5868 5867 5866 5865 5864 5863 5862 5861 5861 5860
5882 5881 5880 5878 5878 5877 5876 5876 5875 5875 5874 5874 5874 5873 5872 5872 5871 5871 5870 5870 5869 5868 5867 5867 5866 5865 5865 5864 5864 5864 5863 5863 5862 5861 5861 5860 5858 5857 5856 5855 5854 5853 5852
5880 5879 5878 5876 5875 5874 5873 5873 5872 5871 5871 5870 5870 5869 5868 5868 5867 5866 5865 5864 5864 5863 5862 5861 5860 5859 5858 5857 5857 5857 5856 5856 5855 5854 5854 5853 5851 5850 5849 5848 5846 5845 5844
5878 5877 5875 5874 5872 5871 5871 5870 5869 5868 5867 5866 5866 5864 5864 5863 5862 5861 5860 5859 5858 5856 5855 5854 5853 5852 5851 5850 5850 5849 5849 5849 5848 5847 5846 5845 5844 5843 5841 5840 5838 5837 5836
5876 5874 5873 5872 5870 5869 5868 5866 5865 5864 5863 5862 5861 5860 5859 5858 5857 5856 5854 5853 5852 5850 5849 5847 5846 5845 5843 5842 5842 5842 5842 5841 5840 5839 5839 5837 5836 5835 5834 5832 5830 5828 5827
5873 5872 5870 5869 5867 5866 5865 5863 5862 5861 5859 5858 5856 5855 5854 5853 5851 5850 5848 5847 5845 5844 5843 5841 5839 5838 5836 5835 5835 5835 5835 5834 5833 5832 5831 5830 5829 5827 5826 5824 5822 5820 5819
5871 5869 5868 5866 5864 5863 5862 5860 5859 5857 5855 5854 5852 5850 5849 5847 5845 5844 5842 5841 5839 5838 5837 5835 5833 5831 5829 5829 5829 5828 5828 5826 5826 5825 5823 5822 5820 5819 5817 5815 5813 5811 5809
5868 5866 5865 5863 5861 5860 5858 5857 5855 5853 5851 5849 5847 5845 5843 5841 5840 5838 5836 5835 5834 5833 5831 5829 5828 5826 5824 5823 5823 5822 5820 5819 5818 5816 5815 5814 5812 5810 5808 5806 5804 5802 5800
5864 5863 5861 5860 5858 5857 5855 5853 5851 5849 5847 5845 5842 5840 5838 5836 5834 5833 5831 5829 5828 5827 5826 5824 5822 5821 5819 5818 5816 5815 5813 5811 5809 5808 5806 5804 5803 5801 5799 5797 5794 5792 5790
5860 5859 5857 5856 5854 5853 5851 5849 5847 5844 5842 5840 5838 5836 5834 5832 5830 5828 5826 5824 5823 5822 5820 5818 5817 5815 5813 5811 5810 5808 5806 5804 5802 5800 5798 5796 5793 5791 5789 5787 5784 5782 5780
5856 5855 5853 5851 5850 5848 5846 5844 5842 5840 5838 5835 5833 5831 5829 5827 5825 5823 5821 5820 5818 5817 5815 5813 5811 5809 5807 5805 5803 5800 5798 5796 5794 5791 5789 5787 5785 5782 5779 5777 5774 5772 5770
5851 5850 5848 5847 5845 5843 5841 5839 5837 5835 5833 5830 5828 5826 5824 5822 5820 5818 5817 5815 5813 5812 5809 5807 5805 5803 5800 5798 5796 5793 5791 5788 5786 5783 5780 5778 5775 5772 5770 5767 5764 5761 5758
5846 5845 5843 5842 5840 5838 5836 5834 5832 5829 5827 5825 5823 5821 5819 5817 5815 5813 5811 5809 5807 5806 5803 5801 5799 5796 5794 5791 5788 5786 5783 5780 5777 5775 5772 5769 5766 5763 5760 5757 5754 5751 5748
5841 5840 5838 5836 5835 5833 5831 5828 5826 5824 5821 5819 5817 5815 5813 5811 5809 5807 5805 5803 5801 5799 5797 5794 5792 5789 5786 5784 5781 5778 5775 5772 5768 5766 5763 5760 5756 5753 5750 5746 5743 5740 5737
5835 5834 5832 5831 5829 5827 5825 5823 5821 5819 5816 5814 5812 5810 5807 5805 5803 5801 5799 5797 5794 5792 5790 5787 5785 5782 5779 5775 5772 5769 5766 5763 5760 5756 5753 5750 5746 5743 5739 5736 5732 5729 5725
5829 5828 5827 5825 5823 5821 5819 5817 5815 5813 5811 5809 5806 5804 5802 5800 5797 5795 5793 5790 5788 5786 5783 5780 5777 5774 5770 5767 5764 5761 5757 5754 5751 5747 5744 5740 5736 5733 5729 5726 5722 5718 5715
5823 5822 5821 5819 5817 5815 5813 5811 5809 5807 5805 5803 5801 5798 5796 5794 5791 5789 5787 5784 5781 5779 5776 5773 5769 5766 5763 5759 5756 5752 5749 5745 5742 5738 5734 5731 5727 5723 5719 5716 5712 5709 5705
5817 5816 5814 5813 5811 5809 5808 5806 5804 5802 5799 5797 5795 5792 5790 5788 5786 5783 5780 5778 5775 5772 5768 5765 5762 5758 5755 5751 5748 5744 5741 5737 5733 5729 5725 5721 5717 5714 5710 5706 5702 5699 5695
5811 5810 5808 5807 5805 5803 5802 5800 5798 5796 5794 5791 5789 5786 5784 5782 5779 5777 5774 5771 5768 5764 5761 5758 5754 5751 5747 5744 5740 5736 5732 5728 5725 5721 5717 5713 5709 5705 5701 5697 5693 5689 5686
5804 5803 5802 5801 5799 5798 5796 5794 5792 5790 5788 5786 5783 5780 5778 5775 5773 5770 5767 5764 5761 5758 5754 5751 5747 5744 5740 5736 5732 5728 5724 5720 5716 5712 5708 5704 5700 5696 5692 5688 5684 5681 5677
5798 5797 5796 5795 5793 5792 5790 5788 5786 5784 5782 5780 5777 5774 5772 5769 5766 5763 5760 5757 5754 5751 5747 5744 5740 5736 5733 5729 5724 5720 5716 5712 5708 5703 5699 5695 5691 5688 5684 5680 5677 5673 5669
5792 5791 5790 5788 5787 5785 5784 5782 5780 5778 5776 5774 5771 5768 5766 5763 5760 5757 5754 5751 5748 5744 5740 5737 5733 5729 5725 5721 5717 5713 5708 5704 5700 5696 5692 5688 5684 5680 5676 5673 5669 5665 5662
5785 5784 5783 5782 5780 5779 5777 5776 5774 5772 5770 5767 5765 5762 5759 5757 5753 5750 5747 5744 5741 5737 5734 5730 5726 5722 5718 5714 5710 5705 5701 5697 5692 5688 5684 5680 5677 5673 5669 5665 5662 5658 5655
5779 5778 5777 5775 5774 5772 5771 5769 5768 5765 5763 5761 5758 5756 5753 5750 5747 5744 5741 5738 5734 5731 5727 5723 5719 5715 5711 5707 5703 5698 5694 5690 5685 5681 5677 5674 5670 5666 5663 5659 5655 5652 5648
5772 5772 5771 5769 5768 5766 5765 5763 5761 5759 5757 5754 5752 5749 5747 5744 5741 5738 5735 5731 5728 5724 5720 5716 5712 5708 5704 5700 5696 5692 5687 5683 5679 5675 5671 5668 5664 5660 5657 5653 5649 5646 5643
5766 5765 5764 5763 5762 5760 5758 5757 5755 5753 5751 5748 5746 5743 5740 5738 5735 5731 5728 5724 5721 5717 5713 5709 5705 5701 5697 5693 5689 5685 5681 5677 5674 5670 5666 5662 5658 5655 5651 5647 5644 5641 5637